Find Zhongxing 1C

NORAD ID: 41103 Int'l Des: 2015-073 Owner: ZZB Country: CN operational
HEOCIRCULAR

リアルタイム位置

3D地球を読み込み中...

Zhongxing 1Cについて

説明を読み込み中...

次回通過

Passes for default location (London). Set your location on the main map for personalized predictions.

高度履歴

Loading altitude history...

軌道要素

1 41103U 15073A 26107.25805384 .00000053 00000-0 00000-0 0 9994
2 41103 6.9491 69.6487 0005504 190.7040 289.8724 0.99164512 37945
Epoch: Apr 17, 2026 • Age: 9 hours

現在のステータス

高度 36088.7 km
速度 3.06 km/s
衛星直下点 -6.51°S, 109.6°W
打ち上げ日 Dec 9, 2015
運用期間 10.3 years
タイプ other

技術仕様

分類 Payload
質量 5000.00 kg
乾燥質量 2500.00 kg
総質量 5000.00 kg
長さ 5.00 m
直径 2.50 m
スパン 30.00 m
形状 Box + 2 Pan
製造者 CAST
バスタイプ DFH-4
フェーズステータス In Orbit
所有者/国 ZZB/CN

Most Searched